Location: Bonac
(42.8765°N, 0.9753°E)
Time: 06:39:50
(UTC+00:00)

COSMO-SKYMED 1 - Pass Details

Date: 12 January 2026
Orbit: 578 x 579 km, 97.9° (Epoch: 10 February)

Event Time Altitude Azimuth Distance (km) Brightness Sun altitude
Exits shadow 18:46:27 16° 360° (N) 1,546 4.5 -22.0°
Maximum altitude 18:49:34 53° 287° (WNW) 713 3.1 -22.5°
Drops below altitude 10° 18:53:33 10° 210° (SSW) 1,885 5.5 -23.2°
Sets 18:55:43 0° 206° (SSW) 2,779 6.4 -23.6°
